Regional Weather Roundup
Issued by NWS

Home | Current Version | Previous Version | Graphics & Text | Print | Product List | Glossary On
Versions: 1 2 3 4 5 6 7 8 9 10 11 12 13 14 15 16 17 18 19 20 21 22 23 24 25 26 27 28 29 30 31 32 33 34 35 36 37 38 39 40 41 42 43 44 45 46 47 48 49 50
009
ASUS43 KFSD 200702
RWRSD

WEATHER ROUNDUP FOR SOUTH DAKOTA
NATIONAL WEATHER SERVICE SIOUX FALLS SD
100 AM CST TUE FEB 20 2018

NOTE: "FAIR" INDICATES FEW OR NO CLOUDS BELOW 12,000 FEET WITH NO
SIGNIFICANT WEATHER AND/OR OBSTRUCTIONS TO VISIBILITY.


SDZ001>005-009-010-012>017-200800-
NORTHWEST AND NORTH CENTRAL SOUTH DAKOTA

CITY           SKY/WX    TMP DP  RH WIND       PRES   REMARKS
BUFFALO          N/A      0  -5  79 N9        29.90F WCI -15
FAITH            N/A      0  -3  87 N16       29.98F WCI -20
MOBRIDGE       CLOUDY     4  -2  76 N14       30.04S HAZE    WCI -14
$$

SDZ012>016-024>037-041>051-057-063-072>074-200800-
SOUTHWEST AND SOUTH CENTRAL SOUTH DAKOTA

CITY           SKY/WX    TMP DP  RH WIND       PRES   REMARKS
RAPID CTY ARPT LGT SNOW  -1  -6  79 N14       29.98R WCI -20
PIERRE         LGT SNOW   4   0  83 N18       30.02F FOG     WCI -16
CUSTER         CLOUDY    -4  -9  79 SW5       29.71R WCI -15
ELLSWORTH AFB  CLOUDY     0  -4  85 N10       29.97  WCI -17
PHILIP         LGT SNOW   2  -2  83 N12       30.03F FOG     WCI -15
PINE RIDGE     CLOUDY     0  -6  76 NW7       29.96R WCI -13
SPEARFISH      LGT SNOW  -4  -8  84 NW7       29.89F WCI -18
WINNER         LGT SNOW   5   0  79 N17       30.01R VSB 3/4 WCI -14
$$

SDZ004>011-016>023-039-040-200800-
NORTHEAST SOUTH DAKOTA

CITY           SKY/WX    TMP DP  RH WIND       PRES   REMARKS
ABERDEEN       LGT SNOW   4   0  83 N16       30.04F VSB 1   WCI -15
WATERTOWN      LGT SNOW   4   1  88 N17       29.90S FOG     WCI -16
BROOKINGS      FLURRIES   7   3  84 N18       29.87F WCI -12
SISSETON         N/A      5   2  87 N18       29.99F WCI -15
$$

SDZ017-020-022-023-036>040-048>070-200800-
SOUTHEAST SOUTH DAKOTA

CITY           SKY/WX    TMP DP  RH WIND       PRES   REMARKS
SIOUX FALLS    LGT SNOW  13  10  88 N14       29.85F VSB 1   WCI  -2
HURON          LGT SNOW   5   1  83 N16G23    29.99S FOG     WCI -14
CHAMBERLAIN    CLOUDY     6   2  86 NW15      29.97F WCI -12
MITCHELL       LGT SNOW   8   4  83 N16       29.97R FOG     WCI -10
YANKTON        SNOW      12   9  87 NW17      29.90S VSB 1/2 WCI  -5
$$

ABBREVIATIONS USED IN REMARKS
   TC - TEMPERATURE IN CELSIUS
  WCI - WIND CHILL INDEX
   HX - HEAT INDEX
  VSB - VISIBILITY





USA.gov is the U.S. government's official web portal to all federal, state and local government web resources and services.